Regional Weather Roundup
Issued by NWS

Home | Current Version | Previous Version | Text Only | Print | Product List | Glossary Off
Versions: 1 2 3 4 5 6 7 8 9 10 11 12 13 14 15 16 17 18 19 20 21 22 23 24 25 26 27 28 29 30 31 32 33 34 35 36 37 38 39 40 41 42 43 44 45 46 47 48 49

000
ASUS45 KBOU 021207
RWRCO

WEATHER ROUNDUP FOR COLORADO
NATIONAL WEATHER SERVICE DENVER/BOULDER CO
600 AM MDT MON MAY 02 2016

NOTE: "FAIR" INDICATES FEW OR NO CLOUDS BELOW 12000 FEET WITH NO
SIGNIFICANT WEATHER AND/OR OBSTRUCTIONS TO VISIBILITY.

COZ001>005-013-030-031-021300-
...NORTHWEST COLORADO...

CITY           SKY/WX    TMP DP  RH WIND       PRES   REMARKS
CRAIG          FAIR      25  21  85 CALM      30.24R
HAYDEN         MOCLDY    32  21  64 S3        30.22R
MEEKER         FAIR      33  28  81 NW3       30.23R
MOUNT WERNER   NOT AVBL
STEAMBOAT SPGS CLOUDY    31  24  75 CALM      30.23R
WALDEN         FAIR      18  12  79 SE6       30.27R WCI   9
$$

COZ006>008-011-021300-
...WEST CENTRAL VALLEYS...

CITY           SKY/WX    TMP DP  RH WIND       PRES   REMARKS
GRAND JUNCTION CLOUDY    44  40  85 SE6       30.19R
MONTROSE       CLOUDY    41  38  89 CALM      30.23S
EAGLE          CLOUDY    37  32  81 CALM      30.25R
RIFLE          CLOUDY    43  39  86 CALM      30.20S
DELTA          NOT AVBL
NUCLA          NOT AVBL
$$

COZ017>023-064>068-021300-
...SOUTHWEST COLORADO...

CITY           SKY/WX    TMP DP  RH WIND       PRES   REMARKS
DURANGO        FAIR      34  33  96 CALM      30.25R
CORTEZ         FAIR      35  32  88 E5        30.23R WCI  31
PAGOSA SPRINGS CLOUDY    34  34 100 CALM      30.26S
TELLURIDE      CLOUDY    30  30 100 CALM      30.26S
WOLF CREEK PAS FOG       21  21 100 SW8       30.30S VSB 1/2 WCI  12
$$

COZ009-010-012-014-032>034-037-058>063-021300-
...CENTRAL COLORADO...

CITY           SKY/WX    TMP DP  RH WIND       PRES   REMARKS
ASPEN          CLOUDY    34  27  75 CALM      30.22R
BUENA VISTA    CLOUDY    29  26  89 CALM      30.26R
COPPER MTN     NOT AVBL
BERTHOUD PASS  FAIR      12   3  67 NW20      30.24R WCI  -6
COTTONWOOD PAS FAIR      27  23  86 CALM      30.25R
GUNNISON       CLOUDY    34  30  86 CALM      30.27R
KREMMLING      FAIR      21  18  86 CALM      30.28R
LEADVILLE      FAIR      14  12  92 E3        30.24S
SALIDA         CLOUDY    31  29  94 N3        30.33R
SUNLIGHT       FOG       30  28  93 CALM      30.30S VSB 1/4
WILKERSON PASS FAIR     N/A N/A N/A N12G20    30.26R
$$

COZ069>075-021300-
...SAN LUIS VALLEY/SANGRE DE CRISTO MOUNTAINS...

CITY           SKY/WX    TMP DP  RH WIND       PRES   REMARKS
ALAMOSA        CLOUDY    33  29  85 NE5       30.24S WCI  29
LA VETA PASS   CLOUDY    27  23  86 MISG      30.22S FOG
SAGUACHE       CLOUDY    32  30  93 CALM      30.26R
$$

COZ035-036-038>040-021300-
...NORTHERN COLORADO FRONT RANGE...

CITY           SKY/WX    TMP DP  RH WIND       PRES   REMARKS
DENVER INTL AP FAIR      29  22  75 SW7       30.24S WCI  22
DMNS CITY PARK   N/A     29  27  93 E9        30.25S WCI  20
AURORA         FAIR      27  24  90 S8        30.24F WCI  18
FRONT RANGE AP NOT AVBL
ERIE MUNI ARPT FAIR      26  26  99 CALM      30.26R
BOULDER MUN AP FAIR      30  28  93 CALM      30.24S
CENTENNIAL     FAIR      24  21  88 SE5       30.24S WCI  18
BROOMFIELD     PTCLDY    30  27  86 W3        30.24S
FORT COLLINS   FAIR      28  21  74 N5        30.25S WCI  23
LONGMONT       FAIR      30  24  77 W3        30.27S HAZE
$$

COZ041-046-047-076>085-087-088-021300-
...PIKES PEAK/PALMER DIVIDE AND SOUTHERN FOOTHILLS...

CITY           SKY/WX    TMP DP  RH WIND       PRES   REMARKS
COLO. SPRINGS  FAIR      27  20  75 N7        30.25S WCI  19
A. F. ACADEMY  FAIR      19  18  93 NE6       30.23F WCI  11
SCHRIEVER AFB  NOT AVBL
ELLICOTT       NOT AVBL
FALCON         FAIR      26  20  77 N6        30.24S WCI  20
FORT CARSON    FAIR      28  24  86 NW8       30.23S WCI  20
LIMON          FAIR      21  19  92 NW5       30.24F WCI  15
MONUMENT HILL  FAIR      18  14  86 SW6       30.24F WCI   9
TRINIDAD       MOCLDY    33  30  88 W7        30.25S WCI  27
$$

COZ042>045-048>051-090-091-021300-
...NORTHEAST COLORADO...

CITY           SKY/WX    TMP DP  RH WIND       PRES   REMARKS
GREELEY ARPT   FAIR      27  21  80 CALM      30.26S
AKRON          FAIR      28  24  85 W13       30.23S WCI  17
BURLINGTON     FAIR      28  23  81 W10       30.24R WCI  19
WRAY           NOT AVBL
STERLING       FAIR      28  27  93 S6        30.23S WCI  22
HOLYOKE        NOT AVBL
FORT MORGAN    FAIR      27  24  91 W9        30.25S WCI  17
$$

COZ086-089-092>099-021300-
...SOUTHEAST COLORADO...

CITY           SKY/WX    TMP DP  RH WIND       PRES   REMARKS
PUEBLO         FAIR      33  29  85 E5        30.26R WCI  29
LA JUNTA       FAIR      31  28  89 W9        30.26S WCI  23
LAMAR          FAIR      29  26  89 CALM      30.24S
SPRINGFIELD      N/A     29  28  96 NW6       30.24S WCI  23
$$



USA.gov is the U.S. government's official web portal to all federal, state and local government web resources and services.